Location: Newark
(36.1358°N, 115.1208°W)
Time: 00:48:00
(UTC+00:00)

Vanguard 1 Rocket - Pass Details

Date: 27 February 2020
Orbit: 650 x 4226 km, 34.3° (Epoch: 28 March)

Event Time Altitude Azimuth Distance (km) Brightness Sun altitude
Rises 06:23:06 0° 220° (SW) 7,669 12.1 -55.6°
Enters shadow 06:29:33 10° 214° (SSW) 6,121 11.4 -56.4°
Reaches altitude 10° 06:29:34 10° 214° (SSW) 6,118 - -56.4°
Maximum altitude 06:44:07 36° 156° (SSE) 2,938 - -58.2°
Drops below altitude 10° 06:52:21 10° 93° (E) 3,483 - -59.1°
Sets 06:54:54 0° 84° (E) 4,128 - -59.3°
